Location: Cutler
(25.6150°N, 80.3110°W)
Time: 12:01:23
(UTC-05:00)

Vanguard 3 - All Passes

Search period start: 21 February 2018 00:00
Search period end: 03 March 2018 00:00
Orbit: 508 x 3264 km, 33.3° (Epoch: 21 February)

Date Brightness Start Highest point End Pass type
(mag) Time Alt. Az. Time Alt. Az. Time Alt. Az.
21 Feb - 11:39:26 10° SSW 11:47:15 22° SSE 11:52:37 10° ESE daylight
21 Feb - 13:52:22 10° SW 14:00:18 67° SSE 14:04:59 10° ENE daylight
21 Feb - 16:07:31 10° W 16:12:04 35° NNW 16:15:35 10° NE daylight
21 Feb - 18:20:54 10° NW 18:24:11 30° N 18:27:45 10° ENE daylight
21 Feb - 20:31:47 10° WNW 20:35:47 72° SSW 20:41:52 10° ESE visible
21 Feb - 22:44:04 10° WSW 22:48:14 19° SSW 22:54:00 10° SSE night (unlit)
22 Feb - 10:26:01 10° S 10:32:09 15° SSE 10:37:00 10° ESE daylight
22 Feb - 12:36:49 10° SW 12:46:16 43° SSE 12:51:49 10° E daylight
22 Feb - 14:51:53 10° W 14:58:30 60° NNW 15:02:42 10° ENE daylight
22 Feb - 17:06:55 10° WNW 17:10:29 26° N 17:13:39 10° ENE daylight
22 Feb - 19:18:45 10° WNW 19:22:23 58° NNE 19:26:58 10° E visible
22 Feb - 21:30:02 10° W 21:34:04 30° SSW 21:40:02 10° SSE visible
23 Feb - 11:21:31 10° SSW 11:31:39 30° SSE 11:38:04 10° E daylight
23 Feb - 13:35:51 10° WSW 13:44:46 83° SSE 13:49:51 10° ENE daylight
23 Feb - 15:51:50 10° WNW 15:56:46 34° NNW 16:00:22 10° NE daylight
23 Feb - 18:05:27 10° NW 18:08:54 33° NNE 18:12:25 10° ENE daylight
23 Feb - 20:16:38 10° WNW 20:20:24 53° SSW 20:25:43 10° SE visible
23 Feb - 22:30:21 10° SW 22:32:49 13° SSW 22:35:44 10° S night (unlit)
24 Feb - 10:06:59 10° SSW 10:16:27 21° SSE 10:23:14 10° ESE daylight
24 Feb - 12:19:41 10° SW 12:30:38 54° SSE 12:36:47 10° ENE daylight
24 Feb - 14:35:49 10° W 14:43:04 54° NNW 14:47:30 10° ENE daylight
24 Feb - 16:51:20 10° WNW 16:55:14 28° N 16:58:29 10° ENE daylight
24 Feb - 19:03:24 10° WNW 19:07:03 74° NNE 19:11:20 10° ESE visible
24 Feb - 21:15:22 10° WSW 21:18:41 20° SSW 21:23:06 10° SSE visible
25 Feb - 08:54:25 10° S 09:00:38 13° SSE 09:05:54 10° SE daylight
25 Feb - 11:03:47 10° SW 11:15:56 38° SSE 11:23:13 10° E daylight
25 Feb - 13:19:16 10° WSW 13:29:12 85° NNW 13:34:41 10° ENE daylight
25 Feb - 15:36:02 10° WNW 15:41:26 34° N 15:45:13 10° ENE daylight
25 Feb - 17:49:55 10° WNW 17:53:39 39° NNE 17:57:09 10° E daylight
25 Feb - 20:01:33 10° W 20:05:02 37° SSW 20:09:32 10° SE visible
26 Feb - 09:48:32 10° SSW 10:00:37 27° SSE 10:08:46 10° E daylight
26 Feb - 12:02:35 10° SW 12:14:56 66° SSE 12:21:39 10° ENE daylight
26 Feb - 14:19:40 10° W 14:27:35 50° NNW 14:32:19 10° ENE daylight
26 Feb - 16:35:36 10° WNW 16:39:59 31° N 16:43:23 10° ENE daylight
26 Feb - 18:48:01 10° WNW 18:51:43 84° SSW 18:55:44 10° ESE visible
26 Feb - 21:01:10 10° WSW 21:03:18 13° SSW 21:05:46 10° S visible
27 Feb - 08:34:37 10° S 08:44:43 18° SSE 08:52:36 10° ESE daylight
27 Feb - 10:46:09 10° SW 11:00:05 47° SSE 11:08:11 10° E daylight
27 Feb - 13:02:40 10° WSW 13:13:33 76° NNW 13:19:29 10° ENE daylight
27 Feb - 15:20:05 10° WNW 15:26:06 35° N 15:30:07 10° ENE daylight
27 Feb - 17:34:16 10° WNW 17:38:23 48° NNE 17:41:55 10° E daylight
27 Feb - 19:46:31 10° W 19:49:39 26° SSW 19:53:19 10° SSE visible
28 Feb - 07:25:36 10° SSE 07:28:16 10° SSE 07:30:49 10° SE daylight
28 Feb - 09:30:22 10° SSW 09:44:37 34° SSE 09:53:57 10° E daylight
28 Feb - 11:45:29 10° WSW 11:59:06 78° SSE 12:06:27 10° ENE daylight
28 Feb - 14:03:26 10° W 14:12:05 49° NNW 14:17:10 10° ENE daylight
28 Feb - 16:19:44 10° WNW 16:24:42 36° N 16:28:20 10° ENE daylight
28 Feb - 18:32:36 10° WNW 18:36:22 60° SSW 18:40:07 10° SE daylight
01 Mar - 08:15:45 10° SSW 08:28:38 24° SSE 08:38:19 10° E daylight
01 Mar - 10:28:35 10° SW 10:44:05 57° SSE 10:53:00 10° ENE daylight
01 Mar - 12:46:01 10° WSW 12:57:50 69° NNW 13:04:15 10° ENE daylight
01 Mar - 15:04:00 10° WNW 15:10:46 38° N 15:15:04 10° ENE daylight
01 Mar - 17:18:32 10° WNW 17:23:05 62° NNE 17:26:42 10° E daylight
01 Mar - 19:31:41 10° WSW 19:34:13 17° SSW 19:36:58 10° SSE visible
02 Mar - 07:03:35 10° S 07:12:10 15° SE 07:19:43 10° ESE daylight
02 Mar - 09:12:24 10° SSW 09:28:28 41° SSE 09:38:51 10° E daylight
02 Mar - 11:28:24 10° WSW 11:43:10 87° SSE 11:51:10 10° ENE daylight
02 Mar - 13:47:05 10° W 13:56:34 48° NNW 14:02:02 10° ENE daylight
02 Mar - 16:03:45 10° WNW 16:09:25 43° N 16:13:17 10° E daylight
02 Mar - 18:17:09 10° WNW 18:20:59 43° SSW 18:24:29 10° SE daylight
